| time (UTC) | temp F | wind direction | speed MPH | gust MPH | rain 1hr in | rain 24hr in | rain mn in | humidity % | barometer mb |
| 20260504234305 | 71 | 224 | 10.0 | 17.0 | 0.00 | 0.00 | 0.00 | 55 | 1003.3 |
| 20260504233805 | 71 | 210 | 5.0 | 16.0 | 0.00 | 0.00 | 0.00 | 55 | 1003.3 |
| 20260504232804 | 72 | 202 | 10.0 | 19.0 | 0.00 | 0.00 | 0.00 | 54 | 1003.3 |
| 20260504231804 | 72 | 217 | 10.0 | 15.0 | 0.00 | 0.00 | 0.00 | 54 | 1003.6 |
| 20260504231304 | 72 | 225 | 10.0 | 15.0 | 0.00 | 0.00 | 0.00 | 53 | 1003.6 |
| 20260504230804 | 72 | 189 | 7.0 | 15.0 | 0.00 | 0.00 | 0.00 | 54 | 1003.6 |
| 20260504230304 | 72 | 232 | 3.0 | 15.0 | 0.00 | 0.00 | 0.00 | 52 | 1003.6 |
| 20260504225304 | 72 | 180 | 6.0 | 17.0 | 0.00 | 0.00 | 0.00 | 53 | 1003.7 |
| 20260504224803 | 72 | 190 | 6.0 | 17.0 | 0.00 | 0.00 | 0.00 | 53 | 1003.6 |
| 20260504224303 | 72 | 188 | 11.0 | 17.0 | 0.00 | 0.00 | 0.00 | 52 | 1003.7 |
| 20260504223803 | 72 | 209 | 3.0 | 15.0 | 0.00 | 0.00 | 0.00 | 54 | 1003.7 |
| 20260504223333 | 72 | 221 | 6.0 | 19.0 | 0.00 | 0.00 | 0.00 | 51 | 1003.8 |
| 20260504222832 | 72 | 186 | 11.0 | 19.0 | 0.00 | 0.00 | 0.00 | 52 | 1003.9 |
| 20260504222333 | 72 | 187 | 11.0 | 19.0 | 0.00 | 0.00 | 0.00 | 53 | 1003.8 |
| 20260504221832 | 71 | 228 | 11.0 | 19.0 | 0.00 | 0.00 | 0.00 | 54 | 1003.6 |
| 20260504221332 | 71 | 205 | 18.0 | 21.0 | 0.00 | 0.00 | 0.00 | 53 | 1003.6 |
| 20260504220832 | 71 | 231 | 10.0 | 21.0 | 0.00 | 0.00 | 0.00 | 53 | 1003.7 |
| 20260504220332 | 71 | 257 | 10.0 | 21.0 | 0.00 | 0.00 | 0.00 | 55 | 1003.8 |
| 20260504215832 | 71 | 219 | 17.0 | 21.0 | 0.00 | 0.00 | 0.00 | 54 | 1003.7 |
| 20260504215332 | 70 | 211 | 10.0 | 23.0 | 0.00 | 0.00 | 0.00 | 55 | 1003.8 |
| 20260504214831 | 70 | 201 | 12.0 | 23.0 | 0.00 | 0.00 | 0.00 | 55 | 1003.9 |
| 20260504214332 | 70 | 200 | 14.0 | 23.0 | 0.00 | 0.00 | 0.00 | 56 | 1003.9 |
| 20260504213831 | 71 | 238 | 7.0 | 24.0 | 0.00 | 0.00 | 0.00 | 54 | 1004.0 |
| 20260504213331 | 71 | 194 | 5.0 | 24.0 | 0.00 | 0.00 | 0.00 | 53 | 1004.2 |
| 20260504212830 | 72 | 196 | 15.0 | 24.0 | 0.00 | 0.00 | 0.00 | 52 | 1004.0 |
| 20260504212331 | 73 | 211 | 7.0 | 23.0 | 0.00 | 0.00 | 0.00 | 46 | 1004.0 |
| 20260504211830 | 73 | 191 | 5.0 | 23.0 | 0.00 | 0.01 | 0.00 | 43 | 1003.9 |
| 20260504211331 | 74 | 208 | 12.0 | 19.0 | 0.00 | 0.01 | 0.00 | 44 | 1003.9 |
| 20260504210830 | 74 | 183 | 5.0 | 16.0 | 0.00 | 0.01 | 0.00 | 45 | 1003.8 |
| 20260504210330 | 73 | 221 | 3.0 | 16.0 | 0.00 | 0.01 | 0.00 | 45 | 1003.6 |
| 20260504205830 | 73 | 248 | 2.0 | 15.0 | 0.00 | 0.01 | 0.00 | 47 | 1003.7 |
| 20260504205330 | 73 | 238 | 4.0 | 16.0 | 0.00 | 0.01 | 0.00 | 48 | 1003.9 |
| 20260504204329 | 73 | 183 | 14.0 | 19.0 | 0.00 | 0.01 | 0.00 | 51 | 1004.2 |
| 20260504203829 | 72 | 231 | 6.0 | 19.0 | 0.00 | 0.01 | 0.00 | 52 | 1004.2 |
| 20260504203329 | 72 | 202 | 6.0 | 25.0 | 0.00 | 0.01 | 0.00 | 54 | 1004.4 |
| 20260504202829 | 71 | 259 | 15.0 | 25.0 | 0.00 | 0.01 | 0.00 | 53 | 1004.3 |
| 20260504202328 | 72 | 180 | 3.0 | 20.0 | 0.00 | 0.01 | 0.00 | 51 | 1004.4 |
| 20260504201829 | 72 | 268 | 3.0 | 20.0 | 0.00 | 0.01 | 0.00 | 52 | 1004.7 |
| 20260504201329 | 72 | 225 | 5.0 | 20.0 | 0.00 | 0.01 | 0.00 | 51 | 1004.6 |
| 20260504200328 | 71 | 262 | 4.0 | 21.0 | 0.00 | 0.01 | 0.00 | 55 | 1005.0 |
| 20260504195828 | 70 | 198 | 4.0 | 25.0 | 0.00 | 0.01 | 0.00 | 55 | 1005.1 |
| 20260504195328 | 70 | 235 | 10.0 | 26.0 | 0.00 | 0.01 | 0.00 | 56 | 1005.2 |
| 20260504194327 | 71 | 198 | 23.0 | 26.0 | 0.00 | 0.01 | 0.00 | 55 | 1005.3 |
| 20260504193327 | 73 | 204 | 10.0 | 32.0 | 0.00 | 0.01 | 0.00 | 52 | 1005.6 |
| 20260504192327 | 72 | 195 | 20.0 | 26.0 | 0.00 | 0.01 | 0.00 | 53 | 1005.4 |
| 20260504191826 | 72 | 219 | 11.0 | 25.0 | 0.00 | 0.01 | 0.00 | 52 | 1005.3 |
| 20260504191326 | 72 | 217 | 23.0 | 25.0 | 0.00 | 0.01 | 0.00 | 54 | 1005.2 |
| 20260504190827 | 72 | 296 | 9.0 | 25.0 | 0.00 | 0.01 | 0.00 | 54 | 1005.1 |
| 20260504190326 | 73 | 178 | 10.0 | 21.0 | 0.00 | 0.01 | 0.00 | 55 | 1005.5 |
| 20260504185826 | 72 | 335 | 11.0 | 22.0 | 0.00 | 0.01 | 0.00 | 56 | 1005.6 |
| 20260504185326 | 72 | 230 | 10.0 | 23.0 | 0.00 | 0.01 | 0.00 | 55 | 1005.8 |
| 20260504183825 | 72 | 231 | 18.0 | 32.0 | 0.00 | 0.01 | 0.00 | 53 | 1005.7 |
| 20260504183326 | 72 | 182 | 15.0 | 32.0 | 0.00 | 0.01 | 0.00 | 54 | 1005.8 |
| 20260504182825 | 73 | 238 | 17.0 | 22.0 | 0.00 | 0.01 | 0.00 | 54 | 1005.7 |
| 20260504182325 | 72 | 176 | 6.0 | 20.0 | 0.00 | 0.01 | 0.00 | 54 | 1005.8 |
| 20260504181825 | 72 | 251 | 10.0 | 18.0 | 0.00 | 0.01 | 0.00 | 54 | 1005.8 |
| 20260504181325 | 72 | 205 | 7.0 | 24.0 | 0.00 | 0.01 | 0.00 | 54 | 1005.7 |
| 20260504180825 | 72 | 227 | 6.0 | 26.0 | 0.00 | 0.01 | 0.00 | 54 | 1005.5 |
| 20260504180324 | 73 | 219 | 18.0 | 26.0 | 0.00 | 0.01 | 0.00 | 52 | 1005.6 |
| 20260504175825 | 72 | 271 | 14.0 | 25.0 | 0.00 | 0.01 | 0.00 | 53 | 1005.2 |
| 20260504174824 | 73 | 161 | 12.0 | 29.0 | 0.00 | 0.01 | 0.00 | 54 | 1005.3 |
| 20260504173824 | 74 | 208 | 10.0 | 22.0 | 0.00 | 0.01 | 0.00 | 53 | 1005.2 |
| 20260504173323 | 73 | 192 | 11.0 | 24.0 | 0.00 | 0.01 | 0.00 | 53 | 1005.4 |
| 20260504172823 | 73 | 159 | 14.0 | 24.0 | 0.00 | 0.01 | 0.00 | 53 | 1005.3 |
| 20260504171823 | 72 | 198 | 5.0 | 24.0 | 0.00 | 0.01 | 0.00 | 53 | 1005.3 |
| 20260504170824 | 72 | 205 | 12.0 | 27.0 | 0.00 | 0.01 | 0.00 | 52 | 1005.4 |
| 20260504170322 | 72 | 211 | 17.0 | 27.0 | 0.00 | 0.01 | 0.00 | 53 | 1005.5 |
| 20260504160320 | 69 | 212 | 4.0 | 19.0 | 0.00 | 0.01 | 0.00 | 57 | 1006.1 |
| 20260504150819 | 65 | 205 | 7.0 | 22.0 | 0.00 | 0.01 | 0.00 | 63 | 1006.5 |
| 20260504150319 | 65 | 213 | 7.0 | 22.0 | 0.00 | 0.01 | 0.00 | 66 | 1006.5 |
| 20260504141317 | 61 | 222 | 14.0 | 19.0 | 0.00 | 0.01 | 0.00 | 66 | 1006.8 |
| 20260504140317 | 61 | 209 | 9.0 | 18.0 | 0.00 | 0.01 | 0.00 | 66 | 1006.9 |
| 20260504130815 | 57 | 206 | 9.0 | 16.0 | 0.00 | 0.01 | 0.00 | 70 | 1007.1 |
| 20260504130315 | 57 | 215 | 10.0 | 16.0 | 0.00 | 0.01 | 0.00 | 69 | 1007.1 |
| 20260504120313 | 53 | 200 | 6.0 | 12.0 | 0.00 | 0.01 | 0.00 | 71 | 1006.9 |
| 20260504110311 | 50 | 225 | 5.0 | 12.0 | 0.00 | 0.01 | 0.00 | 72 | 1006.5 |
| 20260504100310 | 49 | 189 | 7.0 | 10.0 | 0.00 | 0.01 | 0.00 | 73 | 1007.0 |
| 20260504081807 | 51 | 234 | 4.0 | 13.0 | 0.00 | 0.01 | 0.00 | 70 | 1007.8 |
| 20260504080806 | 51 | 217 | 6.0 | 13.0 | 0.00 | 0.01 | 0.00 | 70 | 1007.9 |
| 20260504080306 | 51 | 208 | 5.0 | 15.0 | 0.00 | 0.01 | 0.00 | 69 | 1007.9 |
| 20260504070304 | 52 | 215 | 11.0 | 14.0 | 0.00 | 0.01 | 0.00 | 67 | 1008.5 |
| 20260504050330 | 52 | 184 | 5.0 | 9.0 | 0.00 | 0.01 | 0.00 | 67 | 1010.0 |
| 20260504045831 | 52 | 179 | 5.0 | 9.0 | 0.00 | 0.01 | 0.00 | 66 | 1009.9 |
| 20260504045330 | 53 | 209 | 2.0 | 8.0 | 0.00 | 0.01 | 0.00 | 66 | 1010.0 |
| 20260504044830 | 53 | 184 | 0.0 | 7.0 | 0.00 | 0.01 | 0.00 | 66 | 1010.2 |
| 20260504043829 | 53 | 217 | 6.0 | 7.0 | 0.00 | 0.01 | 0.00 | 66 | 1010.4 |
| 20260504043330 | 53 | 196 | 3.0 | 7.0 | 0.00 | 0.01 | 0.00 | 67 | 1010.3 |
| 20260504042830 | 52 | 200 | 6.0 | 7.0 | 0.00 | 0.01 | 0.00 | 68 | 1010.3 |
| 20260504042329 | 52 | 226 | 6.0 | 7.0 | 0.00 | 0.01 | 0.00 | 68 | 1010.3 |
| 20260504041829 | 52 | 199 | 1.0 | 7.0 | 0.00 | 0.01 | 0.00 | 67 | 1010.3 |
| 20260504040829 | 52 | 161 | 4.0 | 7.0 | 0.00 | 0.01 | 0.00 | 67 | 1010.4 |
| 20260504040329 | 52 | 173 | 4.0 | 7.0 | 0.00 | 0.01 | 0.00 | 68 | 1010.4 |
| 20260504035828 | 51 | 157 | 3.0 | 7.0 | 0.00 | 0.01 | 0.01 | 71 | 1010.6 |
| 20260504034828 | 50 | 196 | 0.0 | 4.0 | 0.00 | 0.01 | 0.01 | 74 | 1010.9 |
| 20260504034329 | 50 | 173 | 3.0 | 4.0 | 0.00 | 0.01 | 0.01 | 76 | 1010.8 |
| 20260504033828 | 50 | 167 | 1.0 | 4.0 | 0.00 | 0.01 | 0.01 | 76 | 1010.9 |
| 20260504033328 | 50 | 154 | 0.0 | 4.0 | 0.00 | 0.01 | 0.01 | 76 | 1010.9 |
| 20260504032827 | 50 | 159 | 0.0 | 4.0 | 0.00 | 0.01 | 0.01 | 76 | 1011.0 |
| 20260504031827 | 50 | 177 | 0.0 | 4.0 | 0.00 | 0.01 | 0.01 | 77 | 1011.1 |
| 20260504031328 | 50 | 172 | 0.0 | 3.0 | 0.00 | 0.01 | 0.01 | 77 | 1011.2 |
| 20260504030827 | 50 | 171 | 2.0 | 4.0 | 0.00 | 0.01 | 0.01 | 79 | 1011.3 |
| 20260504030327 | 50 | 148 | 1.0 | 4.0 | 0.00 | 0.01 | 0.01 | 77 | 1011.3 |
| 20260504025826 | 50 | 180 | 0.0 | 5.0 | 0.00 | 0.01 | 0.01 | 79 | 1011.3 |
| 20260504025327 | 50 | 191 | 4.0 | 6.0 | 0.00 | 0.01 | 0.01 | 78 | 1011.4 |
| 20260504024826 | 50 | 173 | 2.0 | 6.0 | 0.00 | 0.01 | 0.01 | 77 | 1011.4 |
| 20260504024326 | 50 | 135 | 0.0 | 4.0 | 0.00 | 0.01 | 0.01 | 77 | 1011.4 |
| 20260504023826 | 50 | 119 | 3.0 | 5.0 | 0.00 | 0.01 | 0.01 | 78 | 1011.5 |
| 20260504023326 | 50 | 196 | 2.0 | 5.0 | 0.00 | 0.01 | 0.01 | 78 | 1011.5 |
| 20260504022326 | 50 | 134 | 2.0 | 5.0 | 0.00 | 0.01 | 0.01 | 78 | 1011.4 |
| 20260504021825 | 50 | 171 | 3.0 | 5.0 | 0.00 | 0.01 | 0.01 | 77 | 1011.4 |
| 20260504021325 | 49 | 139 | 0.0 | 4.0 | 0.00 | 0.01 | 0.01 | 79 | 1011.3 |
| 20260504020825 | 49 | 158 | 0.0 | 4.0 | 0.00 | 0.01 | 0.01 | 78 | 1011.4 |
| 20260504020325 | 49 | 132 | 0.0 | 3.0 | 0.00 | 0.01 | 0.01 | 78 | 1011.4 |
| 20260504015825 | 50 | 103 | 1.0 | 3.0 | 0.00 | 0.01 | 0.01 | 78 | 1011.3 |
| 20260504015325 | 49 | 165 | 0.0 | 3.0 | 0.00 | 0.01 | 0.01 | 78 | 1011.3 |
| 20260504014825 | 49 | 109 | 1.0 | 6.0 | 0.00 | 0.01 | 0.01 | 79 | 1011.3 |
| 20260504014324 | 50 | 117 | 1.0 | 6.0 | 0.00 | 0.01 | 0.01 | 77 | 1011.3 |
| 20260504012825 | 49 | 89 | 1.0 | 4.0 | 0.00 | 0.01 | 0.01 | 81 | 1011.4 |
| 20260504011823 | 49 | 122 | 1.0 | 5.0 | 0.00 | 0.01 | 0.01 | 81 | 1011.3 |
| 20260504011323 | 49 | 129 | 1.0 | 4.0 | 0.00 | 0.01 | 0.01 | 82 | 1011.3 |
| 20260504010823 | 49 | 122 | 0.0 | 7.0 | 0.00 | 0.01 | 0.01 | 82 | 1011.3 |
| 20260504010323 | 49 | 104 | 3.0 | 7.0 | 0.00 | 0.01 | 0.01 | 81 | 1011.3 |
| 20260504005823 | 49 | 119 | 1.0 | 5.0 | 0.00 | 0.01 | 0.01 | 81 | 1011.2 |
| 20260504005323 | 49 | 98 | 1.0 | 5.0 | 0.00 | 0.01 | 0.01 | 82 | 1011.3 |
| 20260504004823 | 49 | 99 | 1.0 | 5.0 | 0.00 | 0.01 | 0.01 | 83 | 1011.3 |
| 20260504004323 | 49 | 103 | 3.0 | 5.0 | 0.00 | 0.01 | 0.01 | 83 | 1011.1 |
| 20260504003822 | 49 | 106 | 3.0 | 5.0 | 0.00 | 0.01 | 0.01 | 83 | 1011.1 |
| 20260504003322 | 49 | 90 | 3.0 | 5.0 | 0.00 | 0.01 | 0.01 | 83 | 1011.1 |
| 20260504002823 | 49 | 113 | 3.0 | 5.0 | 0.00 | 0.01 | 0.01 | 82 | 1010.9 |
| 20260504002322 | 49 | 98 | 0.0 | 4.0 | 0.00 | 0.01 | 0.01 | 82 | 1011.0 |
| 20260504001321 | 49 | 111 | 3.0 | 6.0 | 0.00 | 0.01 | 0.01 | 79 | 1011.0 |
| 20260504000821 | 49 | 113 | 1.0 | 6.0 | 0.00 | 0.01 | 0.01 | 80 | 1011.1 |
| 20260504000321 | 49 | 98 | 2.0 | 6.0 | 0.00 | 0.01 | 0.01 | 80 | 1011.2 |
| 20260503235821 | 49 | 100 | 5.0 | 6.0 | 0.00 | 0.01 | 0.01 | 80 | 1010.9 |
| 20260503235321 | 49 | 112 | 5.0 | 5.0 | 0.00 | 0.01 | 0.01 | 80 | 1011.0 |
| 20260503234821 | 50 | 96 | 3.0 | 5.0 | 0.00 | 0.01 | 0.01 | 81 | 1010.9 |